User: anonymous   Login
Location: Unspecified
(0.0000°N, 0.0000°E)
Time: 20:16:30
(UTC+00:00)
Language:

STARLINK-34651 - Orbit

View from above orbital plane
View from above orbital plane
View from above satellite
View from above satellite

Ground track
Ground track

The orbit is defined by the following mean orbital elements,

1 64861U          26145.56552493 +.00000000 +00000-0 +12478-3 0 00000
2 64861  97.4517   0.8936 0002348  87.1390 273.0106 15.05654472    09
Epoch (UTC): 25 May 2026 13:34:21
Eccentricity: 0.0002348
inclination: 97.4517°
perigee height: 548 km
apogee height: 551 km
right ascension of ascending node: 0.8936°
argument of perigee: 87.1390°
revolutions per day: 15.05654472
mean anomaly at epoch: 273.0106°

The dashed part of the orbit path shows where the satellite is in the earth's shadow,  

DLR